Location: Cheyres
(46.8153°N, 6.7877°E)
Time: 00:53:32
(UTC+00:00)

Cosmos 1602 - Pass Details

Date: 11 May 2021
Orbit: 514 x 532 km, 82.5° (Epoch: 23 June)

Event Time Altitude Azimuth Distance (km) Brightness Sun altitude
Rises 20:19:59 0° 347° (NNW) 2,657 8.4 -12.4°
Reaches altitude 10° 20:22:08 10° 344° (NNW) 1,767 7.4 -12.6°
Maximum altitude 20:25:57 61° 264° (W) 602 4.2 -13.1°
Enters shadow 20:29:33 11° 185° (S) 1,674 5.9 -13.5°
